| time (UTC) | temp F | wind direction | speed knots | gust knots | rain 1hr in | rain 24hr in | rain mn in | humidity % | barometer mb |
| 20260504081502 | 62 | 135 | 0.9 | 2.6 | 0.00 | 0.00 | 0.00 | 57 | 1011.0 |
| 20260504044549 | 66 | 40 | 2.6 | 4.3 | 0.00 | 0.00 | 0.00 | 50 | 1011.0 |
| 20260504043053 | 66 | 57 | 2.6 | 6.1 | 0.00 | 0.00 | 0.00 | 50 | 1010.9 |
| 20260504041549 | 66 | 31 | 1.7 | 5.2 | 0.00 | 0.00 | 0.00 | 50 | 1010.9 |
| 20260504040107 | 66 | 55 | 2.6 | 4.3 | 0.00 | 0.00 | 0.00 | 50 | 1010.9 |
| 20260504034548 | 68 | 348 | 1.7 | 4.3 | 0.00 | 0.00 | 0.00 | 47 | 1010.8 |
| 20260504033050 | 67 | 51 | 1.7 | 5.2 | 0.00 | 0.00 | 0.00 | 46 | 1010.7 |
| 20260504031555 | 66 | 78 | 0.0 | 2.6 | 0.00 | 0.00 | 0.00 | 51 | 1010.6 |
| 20260504030045 | 66 | 40 | 0.0 | 2.6 | 0.00 | 0.00 | 0.00 | 53 | 1010.7 |
| 20260504024545 | 66 | 26 | 1.7 | 5.2 | 0.00 | 0.00 | 0.00 | 53 | 1010.7 |
| 20260504023044 | 66 | 360 | 3.5 | 7.0 | 0.00 | 0.00 | 0.00 | 53 | 1010.7 |
| 20260504021543 | 64 | 55 | 2.6 | 5.2 | 0.00 | 0.00 | 0.00 | 57 | 1010.9 |
| 20260504020043 | 65 | 56 | 1.7 | 5.2 | 0.00 | 0.00 | 0.00 | 57 | 1011.1 |
| 20260504014542 | 66 | 30 | 3.5 | 8.7 | 0.00 | 0.00 | 0.00 | 54 | 1011.1 |
| 20260504013042 | 65 | 63 | 3.5 | 8.7 | 0.00 | 0.00 | 0.00 | 57 | 1011.3 |
| 20260504011540 | 65 | 22 | 3.5 | 10.4 | 0.00 | 0.00 | 0.00 | 57 | 1011.5 |
| 20260504010036 | 65 | 360 | 4.3 | 8.7 | 0.00 | 0.00 | 0.00 | 57 | 1011.5 |
| 20260504004536 | 66 | 5 | 4.3 | 7.8 | 0.00 | 0.00 | 0.00 | 57 | 1011.6 |
| 20260504003034 | 65 | 360 | 3.5 | 7.8 | 0.00 | 0.00 | 0.00 | 59 | 1011.7 |
| 20260504001538 | 68 | 335 | 4.3 | 7.8 | 0.00 | 0.00 | 0.00 | 50 | 1011.8 |
| 20260504000032 | 70 | 51 | 3.5 | 7.0 | 0.00 | 0.00 | 0.00 | 46 | 1012.0 |
| 20260503234532 | 68 | 51 | 1.7 | 7.0 | 0.00 | 0.00 | 0.00 | 51 | 1012.1 |
| 20260503233034 | 68 | 355 | 2.6 | 7.0 | 0.00 | 0.00 | 0.00 | 52 | 1012.2 |
| 20260503231521 | 66 | 26 | 2.6 | 7.8 | 0.00 | 0.00 | 0.00 | 56 | 1012.5 |
| 20260503230019 | 67 | 51 | 5.2 | 10.4 | 0.00 | 0.00 | 0.00 | 53 | 1012.7 |
| 20260503224518 | 67 | 13 | 2.6 | 8.7 | 0.00 | 0.00 | 0.00 | 56 | 1012.9 |
| 20260503223015 | 66 | 315 | 2.6 | 8.7 | 0.00 | 0.00 | 0.00 | 58 | 1013.1 |
| 20260503221521 | 65 | 331 | 2.6 | 7.8 | 0.00 | 0.00 | 0.00 | 61 | 1013.3 |
| 20260503220009 | 64 | 49 | 4.3 | 8.7 | 0.00 | 0.00 | 0.00 | 64 | 1013.4 |
| 20260503214511 | 65 | 25 | 4.3 | 9.6 | 0.00 | 0.00 | 0.00 | 62 | 1013.7 |
| 20260503213005 | 65 | 22 | 4.3 | 9.6 | 0.00 | 0.00 | 0.00 | 62 | 1013.9 |
| 20260503211503 | 64 | 5 | 2.6 | 6.1 | 0.00 | 0.00 | 0.00 | 66 | 1014.0 |
| 20260503210002 | 64 | 18 | 3.5 | 7.0 | 0.00 | 0.00 | 0.00 | 66 | 1014.1 |
| 20260503204559 | 64 | 35 | 3.5 | 8.7 | 0.00 | 0.00 | 0.00 | 63 | 1014.4 |
| 20260503203058 | 64 | 329 | 2.6 | 9.6 | 0.00 | 0.00 | 0.00 | 64 | 1014.6 |
| 20260503201553 | 62 | 325 | 5.2 | 12.2 | 0.00 | 0.00 | 0.00 | 68 | 1014.9 |
| 20260503200056 | 61 | 42 | 5.2 | 11.3 | 0.00 | 0.00 | 0.00 | 70 | 1015.0 |
| 20260503194558 | 61 | 355 | 5.2 | 17.4 | 0.00 | 0.00 | 0.00 | 70 | 1015.2 |
| 20260503193049 | 62 | 287 | 4.3 | 8.7 | 0.00 | 0.00 | 0.00 | 71 | 1015.2 |
| 20260503191552 | 63 | 344 | 2.6 | 7.8 | 0.00 | 0.00 | 0.00 | 71 | 1015.3 |
| 20260503190048 | 62 | 330 | 3.5 | 6.1 | 0.00 | 0.00 | 0.00 | 72 | 1015.4 |
| 20260503184542 | 61 | 360 | 1.7 | 7.0 | 0.00 | 0.00 | 0.00 | 74 | 1015.6 |
| 20260503183041 | 61 | 329 | 2.6 | 7.8 | 0.00 | 0.00 | 0.00 | 74 | 1015.9 |
| 20260503181539 | 60 | 349 | 3.5 | 8.7 | 0.00 | 0.00 | 0.00 | 76 | 1016.0 |
| 20260503180036 | 59 | 10 | 1.7 | 8.7 | 0.00 | 0.00 | 0.00 | 78 | 1016.0 |
| 20260503174535 | 59 | 5 | 3.5 | 9.6 | 0.00 | 0.00 | 0.00 | 79 | 1016.2 |
| 20260503173038 | 59 | 360 | 2.6 | 10.4 | 0.00 | 0.00 | 0.00 | 79 | 1016.3 |
| 20260503171535 | 58 | 341 | 3.5 | 8.7 | 0.00 | 0.00 | 0.00 | 81 | 1016.4 |